Regional Weather Roundup
Issued by NWS

Home | Current Version | Previous Version | Graphics & Text | Print | Product List | Glossary Off
Versions: 1 2 3 4 5 6 7 8 9 10 11 12 13 14 15 16 17 18 19 20 21 22 23 24 25 26 27 28 29 30 31 32 33 34 35 36 37 38 39 40 41 42 43 44 45 46 47 48 49 50

376
ASUS43 KTOP 290608
RWRKS

WEATHER ROUNDUP FOR KANSAS
NATIONAL WEATHER SERVICE GOODLAND KS
100 AM CDT FRI JUL 29 2016

NOTE:  "FAIR" INDICATES FEW OR NO CLOUDS BELOW 12,000 FEET WITH NO
SIGNIFICANT WEATHER AND/OR OBSTRUCTIONS TO VISIBILITY.

KSZ001>006-013>018-027>032-041>047-290700-
NORTHWEST KANSAS

CITY           SKY/WX    TMP DP  RH WIND       PRES   REMARKS
GOODLAND       CLOUDY    64  61  90 SE3       30.17R
6HR MIN TEMP:  64; 6HR MAX TEMP:  76;

HAYS           CLOUDY    70  59  68 CALM      30.06F
HILL CITY      CLOUDY    68  67  96 S5        30.10R
6HR MIN TEMP:  68; 6HR MAX TEMP:  75; 6HR PCP:  0.16;

RUSSELL        CLOUDY    68  66  93 W5        30.05S
6HR MIN TEMP:  68; 6HR MAX TEMP:  71; 6HR PCP: TRACE;

$$

KSZ061>065-074>080-084>089-290700-
SOUTHWEST KANSAS

CITY           SKY/WX    TMP DP  RH WIND       PRES   REMARKS
DODGE CITY     MOCLDY    69  65  86 E7        30.07S
6HR MIN TEMP:  69; 6HR MAX TEMP:  90;

ELKHART          N/A     75  59  57 NW15        N/A
GARDEN CITY    CLOUDY    68  64  87 N15       30.13R THUNDER
6HR MIN TEMP:  68; 6HR MAX TEMP:  88;

GREAT BEND     CLOUDY    70  61  73 N7        30.04F
LIBERAL        PTCLDY    75  61  60 E9        30.06S
PRATT          MOCLDY    67  62  84 NE5       30.04S
6HR MIN TEMP:  67; 6HR MAX TEMP:  91;

$$

KSZ066>073-081>083-090>101-290700-
SOUTHEAST KANSAS

CITY           SKY/WX    TMP DP  RH WIND       PRES   REMARKS
CHANUTE        CLOUDY    73  66  78 CALM      30.00R
6HR MIN TEMP:  73; 6HR MAX TEMP:  88;

COFFEYVILLE    MOCLDY    72  68  87 VRB3      29.96F
6HR MIN TEMP:  71; 6HR MAX TEMP:  87; 6HR PCP:  0.01;

HUTCHINSON     PTCLDY    69  67  93 N7        30.03S
6HR MIN TEMP:  67; 6HR MAX TEMP:  89; 6HR PCP:  0.76;

MEDICINE LODGE   N/A     71  62  73 CALM      30.01R
NEWTON         MOCLDY    69  68  96 N7        30.04R
PARSONS        CLOUDY    74  69  85 N3        30.01R
6HR MIN TEMP:  73; 6HR MAX TEMP:  88; 6HR PCP:  0.01;

WICHITA INTL   MOCLDY    73  68  84 NE7       30.00S
6HR MIN TEMP:  68; 6HR MAX TEMP:  87; 6HR PCP:  1.03;

WICHITA JABRA  CLEAR     69  68  96 N5        30.00F
6HR MIN TEMP:  69; 6HR MAX TEMP:  86; 6HR PCP:  0.65;

WICHITA MCCONL CLEAR     71  67  89 E5        30.00S
WINFIELD       PTCLDY    71  66  84 E5        29.99F
6HR MIN TEMP:  71; 6HR MAX TEMP:  82; 6HR PCP:  0.23;

$$

KSZ007>012-019>026-033>040-048>060-102>105-290700-
NORTHEAST KANSAS

CITY           SKY/WX    TMP DP  RH WIND       PRES   REMARKS
CONCORDIA      PTCLDY    68  66  93 SW8       30.04R
6HR MIN TEMP:  67; 6HR MAX TEMP:  69; 6HR PCP:  0.10;

EMPORIA        CLOUDY    69  67  93 W6        30.01R
6HR MIN TEMP:  67; 6HR MAX TEMP:  89; 6HR PCP:  0.33;

LAWRENCE       CLOUDY    69  68  96 NW9       30.00R
6HR MIN TEMP:  69; 6HR MAX TEMP:  84; 6HR PCP:  0.13;

MANHATTAN      CLEAR     68  66  93 CALM      30.02S
6HR MIN TEMP:  67; 6HR MAX TEMP:  87; 6HR PCP:  0.34;

MARYSVILLE     CLEAR     68  64  88 CALM      30.02F
OLATHE IND     MOCLDY    70  69  97 N5        29.98F
6HR MIN TEMP:  70; 6HR MAX TEMP:  87; 6HR PCP:  0.18;

OLATHE EXE     MOCLDY    70  69  97 N8        29.98F
6HR MIN TEMP:  69; 6HR MAX TEMP:  88; 6HR PCP:  0.10;

SALINA         MOCLDY    70  67  90 W5        30.05R
6HR MIN TEMP:  70; 6HR MAX TEMP:  80; 6HR PCP:  0.23;

TOPEKA BILLARD CLOUDY    69  66  90 SW3       30.01R
6HR MIN TEMP:  69; 6HR MAX TEMP:  88; 6HR PCP:  0.13;

TOPEKA FORBES  CLOUDY    70  67  90 NW7       30.02R
6HR MIN TEMP:  70; 6HR MAX TEMP:  88; 6HR PCP:  0.25;

$$




USA.gov is the U.S. government's official web portal to all federal, state and local government web resources and services.